KC4JIR Weather Reports


time (UTC)temp
C
wind
direction
speed
KPH
gust
KPH
rain 1hr
cm
rain 24hr
cm
rain mn
cm
humidity
%
barometer
mb
20260906162903 32 330 0.0 0.0 0.00 0.00 0.00 66 1009.9
20260906162401 32 296 0.0 0.0 0.00 0.00 0.00 69 1009.9
20260906161857 32 119 0.0 0.0 0.00 0.00 0.00 68 1010.1
20260906161356 32 314 0.0 0.0 0.00 0.00 0.00 68 1010.0
20260906160855 32 308 0.0 0.0 0.00 0.00 0.00 67 1010.1
20260906160349 32 275 0.0 0.0 0.00 0.00 0.00 69 1010.1
20260906155847 31 290 0.0 0.0 0.00 0.00 0.00 69 1010.2
20260906155341 31 326 0.0 0.0 0.00 0.00 0.00 73 1010.1
20260906154838 31 304 0.0 0.0 0.00 0.00 0.00 72 1010.1
20260906154332 30 249 0.0 0.0 0.00 0.00 0.00 70 1010.2
20260906153831 30 297 0.0 0.0 0.00 0.00 0.00 71 1010.2
20260906153330 30 288 0.0 0.0 0.00 0.00 0.00 71 1010.2
20260906152825 30 273 0.0 0.0 0.00 0.00 0.00 72 1010.3
20260906152320 30 331 0.0 0.0 0.00 0.00 0.00 74 1010.2
20260906151820 30 302 0.0 0.0 0.00 0.00 0.00 80 1010.5
20260906151316 28 305 0.0 1.6 0.00 0.00 0.00 76 1010.4
20260906150811 28 305 0.0 0.0 0.00 0.00 0.00 79 1010.1
20260906150307 29 299 0.0 0.0 0.00 0.00 0.00 82 1010.1
20260906145805 29 310 0.0 0.0 0.00 0.00 0.00 76 1010.2
20260906145306 29 306 0.0 0.0 0.00 0.00 0.00 75 1010.1
20260906144759 29 317 0.0 1.6 0.00 0.00 0.00 75 1010.0
20260906144254 28 292 0.0 0.0 0.00 0.00 0.00 77 1010.0
20260906143754 27 316 0.0 0.0 0.00 0.00 0.00 80 1009.9
20260906143251 27 305 0.0 0.0 0.00 0.00 0.00 80 1010.3
20260906142750 27 300 0.0 0.0 0.00 0.00 0.00 82 1010.1
20260906142246 27 294 0.0 0.0 0.00 0.00 0.00 81 1010.3
20260906141744 27 302 0.0 0.0 0.00 0.00 0.00 83 1010.2
20260906141239 27 299 0.0 0.0 0.00 0.00 0.00 85 1010.2
20260906140738 27 298 0.0 0.0 0.00 0.00 0.00 84 1010.2
20260906140234 26 301 0.0 0.0 0.00 0.00 0.00 86 1010.1
20260906135730 26 302 0.0 0.0 0.00 0.00 0.00 84 1010.4
20260906135227 26 298 0.0 0.0 0.00 0.00 0.00 83 1010.3
20260906134722 26 298 0.0 0.0 0.00 0.00 0.00 85 1010.1
20260906134217 26 277 0.0 0.0 0.00 0.00 0.00 84 1010.2
20260906133713 26 298 0.0 0.0 0.00 0.00 0.00 87 1010.1
20260906133208 26 318 0.0 1.6 0.00 0.00 0.00 87 1010.3
20260906132703 25 302 0.0 0.0 0.00 0.00 0.00 88 1010.3
20260906132159 25 294 0.0 0.0 0.00 0.00 0.00 88 1010.4
20260906131654 25 298 0.0 0.0 0.00 0.00 0.00 90 1010.2
20260906131149 25 300 0.0 0.0 0.00 0.00 0.00 88 1010.5
20260906130644 25 280 0.0 0.0 0.00 0.00 0.00 88 1010.5
20260906130139 25 294 0.0 0.0 0.00 0.00 0.00 89 1010.4
20260906125637 25 298 0.0 0.0 0.00 0.00 0.00 90 1010.6
20260906125136 25 305 0.0 0.0 0.00 0.00 0.00 91 1010.5
20260906124632 24 298 0.0 0.0 0.00 0.00 0.00 90 1010.6
20260906124127 24 305 0.0 0.0 0.00 0.00 0.00 91 1010.7
20260906123626 24 302 0.0 0.0 0.00 0.00 0.00 92 1010.6
20260906123121 23 301 0.0 0.0 0.00 0.00 0.00 92 1010.7
20260906122620 23 298 0.0 0.0 0.00 0.00 0.00 95 1010.4
20260906122116 23 296 0.0 0.0 0.00 0.00 0.00 97 1010.4
20260906121612 23 296 0.0 0.0 0.00 0.00 0.00 97 1010.4
20260906121109 23 295 0.0 0.0 0.00 0.00 0.00 97 1010.4
20260906120604 23 294 0.0 0.0 0.00 0.00 0.00 97 1010.5
20260906120101 22 296 0.0 0.0 0.00 0.00 0.00 97 1010.2
20260906115601 22 298 0.0 0.0 0.00 0.00 0.00 98 1010.2
20260906115056 22 298 0.0 0.0 0.00 0.00 0.00 98 1010.1
20260906114550 22 298 0.0 0.0 0.00 0.00 0.00 98 1010.1
20260906114045 22 303 0.0 0.0 0.00 0.00 0.00 98 1010.1
20260906113544 22 299 0.0 0.0 0.00 0.00 0.00 98 1010.1
20260906113040 22 294 0.0 0.0 0.00 0.00 0.00 98 1009.8
20260906112534 22 298 0.0 0.0 0.00 0.00 0.00 98 1009.8
20260906112031 22 298 0.0 0.0 0.00 0.00 0.00 98 1009.7
20260906111530 22 302 0.0 0.0 0.00 0.00 0.00 99 1009.5
20260906111025 22 304 0.0 0.0 0.00 0.00 0.00 99 1009.6
20260906110520 22 298 0.0 0.0 0.00 0.00 0.00 99 1009.6
20260906110019 22 298 0.0 0.0 0.00 0.00 0.00 99 1009.4
20260906105515 22 296 0.0 0.0 0.00 0.00 0.00 98 1009.8
20260906105011 22 291 0.0 0.0 0.00 0.00 0.00 98 1009.3
20260906104509 22 293 0.0 0.0 0.00 0.00 0.00 98 1009.6
20260906104003 22 294 0.0 0.0 0.00 0.00 0.00 98 1009.5
20260906103502 22 301 0.0 0.0 0.00 0.00 0.00 98 1009.7
20260906102957 22 300 0.0 0.0 0.00 0.00 0.00 98 1009.6
20260906102457 22 299 0.0 0.0 0.00 0.00 0.00 98 1009.3
20260906101951 22 300 0.0 0.0 0.00 0.00 0.00 98 1009.2
20260906101446 22 296 0.0 0.0 0.00 0.00 0.00 98 1009.2
20260906100947 22 298 0.0 0.0 0.00 0.00 0.00 98 1009.4
20260906100442 22 295 0.0 0.0 0.00 0.00 0.00 97 1009.5
20260906095936 22 303 0.0 0.0 0.00 0.00 0.00 97 1009.3
20260906095431 22 311 0.0 0.0 0.00 0.00 0.00 97 1009.4
20260906094927 22 298 0.0 0.0 0.00 0.00 0.00 98 1009.6
20260906094420 22 301 0.0 0.0 0.00 0.00 0.00 98 1009.6
20260906093917 22 265 0.0 0.0 0.00 0.00 0.00 98 1009.2
20260906093413 22 299 0.0 0.0 0.00 0.00 0.00 98 1009.5
20260906092912 22 291 0.0 0.0 0.00 0.00 0.00 98 1009.5
20260906092407 22 300 0.0 0.0 0.00 0.00 0.00 98 1009.4
20260906091902 22 295 0.0 0.0 0.00 0.00 0.00 98 1009.3
20260906091358 22 289 0.0 0.0 0.00 0.00 0.00 98 1009.4
20260906090855 22 305 0.0 0.0 0.00 0.00 0.00 98 1009.2
20260906090354 22 300 0.0 0.0 0.00 0.00 0.00 98 1009.1
20260906085849 22 299 0.0 0.0 0.00 0.00 0.00 98 1009.3
20260906085348 22 294 0.0 0.0 0.00 0.00 0.00 97 1009.3
20260906084843 22 294 0.0 0.0 0.00 0.00 0.00 98 1009.3
20260906084342 23 304 0.0 0.0 0.00 0.00 0.00 98 1008.8
20260906083837 23 292 0.0 0.0 0.00 0.00 0.00 98 1008.9
20260906083332 23 294 0.0 0.0 0.00 0.00 0.00 98 1009.0
20260906082826 23 312 0.0 0.0 0.00 0.00 0.00 98 1009.1
20260906082322 23 311 0.0 0.0 0.00 0.00 0.00 97 1009.0
20260906081818 23 299 0.0 0.0 0.00 0.00 0.00 97 1009.1
20260906081313 23 305 0.0 0.0 0.00 0.00 0.00 97 1009.2
20260906080809 23 305 0.0 0.0 0.00 0.00 0.00 97 1008.8
20260906080305 23 296 0.0 0.0 0.00 0.00 0.00 97 1009.0
20260906075805 23 301 0.0 0.0 0.00 0.00 0.00 96 1008.9
20260906075306 23 312 0.0 0.0 0.00 0.00 0.00 96 1008.8
20260906074800 23 300 0.0 0.0 0.00 0.00 0.00 96 1008.7
20260906074259 23 306 0.0 0.0 0.00 0.00 0.00 97 1008.8
20260906073758 23 315 0.0 0.0 0.00 0.00 0.00 97 1008.6
20260906073253 23 303 0.0 0.0 0.00 0.00 0.00 97 1008.7
20260906072749 23 321 0.0 0.0 0.00 0.00 0.00 97 1008.7
20260906072245 23 314 0.0 0.0 0.00 0.00 0.00 97 1008.9
20260906071741 24 313 0.0 0.0 0.00 0.00 0.00 97 1008.7
20260906071241 24 316 0.0 0.0 0.00 0.00 0.00 96 1009.0
20260906070737 24 304 0.0 0.0 0.00 0.00 0.00 96 1008.9
20260906070233 23 299 0.0 0.0 0.00 0.00 0.00 96 1009.2
20260906065732 24 299 0.0 0.0 0.00 0.00 0.00 96 1009.0
20260906065228 24 311 0.0 0.0 0.00 0.00 0.00 96 1009.4
20260906064723 24 333 0.0 0.0 0.00 0.00 0.00 96 1008.8
20260906064219 24 321 0.0 0.0 0.00 0.00 0.00 96 1008.9
20260906063714 25 308 0.0 0.0 0.00 0.00 0.00 96 1009.1
20260906063209 24 316 0.0 0.0 0.00 0.00 0.00 95 1009.3
20260906062705 24 298 0.0 0.0 0.00 0.00 0.00 96 1009.1
20260906062203 25 299 0.0 0.0 0.00 0.00 0.00 96 1009.1
20260906061700 25 311 0.0 0.0 0.00 0.00 0.00 96 1009.0
20260906061155 25 312 0.0 0.0 0.00 0.00 0.00 96 1009.3
20260906060651 25 311 0.0 0.0 0.00 0.00 0.00 96 1009.6
20260906060148 25 310 0.0 0.0 0.00 0.00 0.00 96 1009.5
20260906055643 25 312 0.0 0.0 0.00 0.00 0.00 96 1009.4
20260906055138 25 304 0.0 0.0 0.00 0.00 0.00 95 1009.7
20260906054634 25 310 0.0 0.0 0.00 0.00 0.00 95 1009.6
20260906054129 25 311 0.0 0.0 0.00 0.00 0.00 95 1009.7
20260906053625 25 312 0.0 0.0 0.00 0.00 0.00 95 1009.7
20260906053120 25 318 0.0 0.0 0.00 0.00 0.00 94 1009.8
20260906052615 25 312 0.0 0.0 0.00 0.00 0.00 93 1010.2
20260906052107 25 308 0.0 0.0 0.00 0.00 0.00 93 1009.9
20260906051602 25 309 0.0 0.0 0.00 0.00 0.00 94 1010.2
20260906051057 25 313 0.0 0.0 0.00 0.00 0.00 94 1010.1
20260906050552 25 302 0.0 0.0 0.00 0.00 0.00 94 1010.1
20260906050048 25 309 0.0 0.0 0.00 0.00 0.00 95 1010.3
20260906045546 25 310 0.0 0.0 0.00 0.00 0.00 96 1010.1
20260906045042 25 312 0.0 0.0 0.00 0.00 0.00 96 1010.1
20260906044537 25 310 0.0 0.0 0.00 0.00 0.00 96 1009.7
20260906044032 25 298 0.0 0.0 0.00 0.00 0.00 96 1009.5
20260906043528 25 299 0.0 0.0 0.00 0.00 0.00 96 1009.4
20260906043024 25 285 0.0 0.0 0.00 0.00 0.00 96 1009.4
20260906042522 25 292 0.0 0.0 0.00 0.00 0.00 94 1009.4
20260906042018 25 311 0.0 0.0 0.00 0.00 0.00 95 1009.4
20260906041514 25 311 0.0 0.0 0.00 0.00 0.00 94 1009.4
20260906041014 25 287 0.0 0.0 0.00 0.00 0.00 94 1009.7
20260906040509 25 300 0.0 0.0 0.00 0.00 0.00 94 1009.5
20260906040004 25 328 0.0 0.0 0.00 0.00 0.00 91 1009.4
20260906035458 26 336 0.0 0.0 0.00 0.00 0.00 91 1009.6
20260906034949 26 336 0.0 0.0 0.00 0.00 0.00 91 1009.5
20260906034449 26 335 0.0 0.0 0.00 0.00 0.00 89 1009.7
20260906033944 26 334 0.0 0.0 0.00 0.00 0.00 89 1009.7
20260906033438 26 336 0.0 0.0 0.00 0.00 0.00 88 1009.7
20260906032928 26 332 0.0 0.0 0.00 0.00 0.00 87 1009.8
20260906032425 26 331 0.0 0.0 0.00 0.00 0.00 88 1009.8
20260906031919 26 341 0.0 0.0 0.00 0.00 0.00 86 1009.7
20260906031414 26 331 0.0 0.0 0.00 0.00 0.00 86 1010.0
20260906030909 26 323 0.0 0.0 0.00 0.00 0.00 89 1009.4
20260906030404 26 310 0.0 0.0 0.00 0.00 0.00 89 1009.3
20260906025858 26 331 0.0 0.0 0.00 0.00 0.00 88 1009.5
20260906025353 26 337 0.0 0.0 0.00 0.00 0.00 87 1009.6
20260906024851 26 337 0.0 0.0 0.00 0.00 0.00 87 1009.6
20260906024351 26 328 0.0 0.0 0.00 0.00 0.00 86 1009.7
20260906023846 26 345 0.0 0.0 0.00 0.00 0.00 88 1009.8
20260906023342 26 350 0.0 0.0 0.00 0.00 0.00 88 1009.9
20260906022837 27 354 0.0 0.0 0.00 0.00 0.00 87 1009.9
20260906022332 27 353 0.0 0.0 0.00 0.00 0.00 88 1010.0
20260906021828 27 353 0.0 0.0 0.00 0.00 0.00 87 1010.1
20260906021327 27 354 0.0 0.0 0.00 0.00 0.00 84 1009.9
20260906020822 27 297 0.0 0.0 0.00 0.00 0.00 82 1009.7
20260906020321 28 269 0.0 0.0 0.00 0.00 0.00 82 1009.9
20260906015816 28 273 0.0 0.0 0.00 0.00 0.00 81 1009.7
20260906015314 28 294 0.0 0.0 0.00 0.00 0.00 80 1010.0
20260906014809 28 301 0.0 0.0 0.00 0.00 0.00 80 1009.8
20260906014305 28 304 0.0 0.0 0.00 0.00 0.00 81 1010.1
20260906013800 28 318 1.6 1.6 0.00 0.00 0.00 82 1010.1
20260906013255 28 327 1.6 3.2 0.00 0.00 0.00 84 1010.1
20260906012751 27 299 0.0 0.0 0.00 0.00 0.00 86 1009.6
20260906012246 27 322 0.0 0.0 0.00 0.00 0.00 89 1009.8
20260906011741 27 312 0.0 0.0 0.00 0.00 0.00 91 1009.6
20260906011241 27 286 0.0 0.0 0.00 0.00 0.00 92 1009.4
20260906010736 27 313 0.0 0.0 0.00 0.00 0.00 92 1009.3
20260906010232 27 309 0.0 0.0 0.00 0.00 0.00 91 1009.4
20260906005727 27 306 0.0 0.0 0.00 0.00 0.00 90 1009.3
20260906005220 27 297 0.0 0.0 0.00 0.00 0.00 90 1008.9
20260906004720 27 308 0.0 0.0 0.00 0.00 0.00 90 1009.0
20260906004215 28 299 0.0 0.0 0.00 0.00 0.00 89 1009.0
20260906003710 27 290 0.0 0.0 0.00 0.00 0.00 89 1008.9
20260906003206 28 282 0.0 0.0 0.00 0.00 0.00 89 1008.8
20260906002706 28 287 0.0 0.0 0.00 0.00 0.00 89 1008.8
20260906002200 28 303 0.0 0.0 0.00 0.00 0.00 88 1008.9
20260906001656 28 313 0.0 0.0 0.00 0.00 0.00 87 1008.6
20260906001155 28 290 0.0 0.0 0.00 0.00 0.00 86 1008.6
20260906000651 28 276 0.0 0.0 0.00 0.00 0.00 86 1008.6
20260906000147 28 330 0.0 0.0 0.00 0.00 0.00 85 1008.5
20260905235645 29 300 0.0 0.0 0.00 0.00 0.00 83 1008.5
20260905235141 29 299 0.0 0.0 0.00 0.00 0.00 84 1008.2
20260905234636 29 270 0.0 0.0 0.00 0.00 0.00 82 1008.5
20260905234131 29 277 0.0 0.0 0.00 0.00 0.00 84 1008.7
20260905233626 30 298 0.0 0.0 0.00 0.00 0.00 83 1008.7
20260905233120 30 304 0.0 0.0 0.00 0.00 0.00 81 1008.7
20260905232616 30 294 0.0 0.0 0.00 0.00 0.00 81 1008.6
20260905232112 30 274 0.0 0.0 0.00 0.00 0.00 80 1008.6
20260905231612 30 288 0.0 0.0 0.00 0.00 0.00 79 1008.4
20260905231108 30 291 0.0 0.0 0.00 0.00 0.00 79 1008.6
20260905230603 30 258 1.6 1.6 0.00 0.00 0.00 77 1008.6
20260905230101 30 239 3.2 3.2 0.00 0.00 0.00 77 1008.6
20260905225555 30 247 1.6 1.6 0.00 0.00 0.00 76 1008.6
20260905225050 31 237 0.0 0.0 0.00 0.00 0.00 76 1008.5
20260905224550 31 296 0.0 0.0 0.00 0.00 0.00 76 1008.7
20260905224049 31 290 0.0 0.0 0.00 0.00 0.00 76 1008.6
20260905223547 31 261 1.6 1.6 0.00 0.00 0.00 74 1008.7
20260905223043 31 288 1.6 1.6 0.00 0.00 0.00 75 1008.9
20260905222543 32 275 3.2 4.8 0.00 0.00 0.00 73 1008.6
20260905222038 32 279 1.6 1.6 0.00 0.00 0.00 74 1008.5
20260905221534 32 252 4.8 8.0 0.00 0.00 0.00 73 1008.5
20260905221030 32 220 0.0 1.6 0.00 0.00 0.00 73 1008.6
20260905220526 32 295 0.0 0.0 0.00 0.00 0.00 72 1008.6
20260905220022 32 266 0.0 1.6 0.00 0.00 0.00 72 1008.8
20260905215516 32 259 1.6 3.2 0.00 0.00 0.00 71 1008.6
20260905215012 32 192 0.0 1.6 0.00 0.00 0.00 72 1008.5
20260905214507 33 289 1.6 3.2 0.00 0.00 0.00 70 1008.5
20260905214002 32 277 1.6 3.2 0.00 0.00 0.00 71 1008.3
20260905213458 33 261 1.6 3.2 0.00 0.00 0.00 70 1008.7
20260905212953 33 246 3.2 3.2 0.00 0.00 0.00 69 1008.3
20260905212447 33 280 0.0 0.0 0.00 0.00 0.00 67 1008.4
20260905211946 34 279 1.6 1.6 0.00 0.00 0.00 67 1008.6
20260905211442 34 282 0.0 0.0 0.00 0.00 0.00 66 1008.3
20260905210938 34 265 0.0 0.0 0.00 0.00 0.00 66 1008.6
20260905210433 35 289 0.0 0.0 0.00 0.00 0.00 64 1008.5
20260905205932 35 262 0.0 1.6 0.00 0.00 0.00 63 1008.3
20260905205427 35 265 1.6 3.2 0.00 0.00 0.00 63 1008.4
20260905204926 35 265 0.0 0.0 0.00 0.00 0.00 62 1008.3
20260905204422 35 263 0.0 0.0 0.00 0.00 0.00 60 1008.3
20260905203921 35 267 0.0 0.0 0.00 0.00 0.00 61 1008.3
20260905203417 34 254 0.0 0.0 0.00 0.00 0.00 61 1008.3
20260905202912 34 264 0.0 0.0 0.00 0.00 0.00 63 1008.3
20260905202407 34 254 3.2 3.2 0.00 0.00 0.00 62 1008.5
20260905201903 33 281 0.0 0.0 0.00 0.00 0.00 64 1008.5
20260905201357 34 316 0.0 0.0 0.00 0.00 0.00 64 1008.6
20260905200852 33 269 0.0 0.0 0.00 0.00 0.00 63 1008.7
20260905200348 33 246 0.0 0.0 0.00 0.00 0.00 67 1008.9
20260905195846 33 290 0.0 0.0 0.00 0.00 0.00 65 1009.0
20260905195341 33 290 0.0 0.0 0.00 0.00 0.00 65 1009.0
20260905194836 33 264 0.0 0.0 0.00 0.00 0.00 62 1009.3
20260905194331 34 294 0.0 0.0 0.00 0.00 0.00 63 1009.3
20260905193830 35 278 0.0 0.0 0.00 0.00 0.00 58 1009.3
20260905193325 35 277 0.0 0.0 0.00 0.00 0.00 58 1009.6
20260905192821 35 266 0.0 0.0 0.00 0.00 0.00 60 1009.5
20260905192317 35 299 1.6 3.2 0.00 0.00 0.00 59 1009.5
20260905191816 35 287 0.0 0.0 0.00 0.00 0.00 58 1009.5
20260905191314 35 287 0.0 0.0 0.00 0.00 0.00 58 1010.0
20260905190813 35 236 1.6 4.8 0.00 0.00 0.00 58 1009.9
20260905190307 35 236 1.6 4.8 0.00 0.00 0.00 58 1009.5
20260905185806 34 270 0.0 0.0 0.00 0.00 0.00 63 1009.8
20260905185301 35 268 1.6 3.2 0.00 0.00 0.00 59 1009.6
20260905184800 34 278 0.0 0.0 0.00 0.00 0.00 61 1009.5
20260905184254 35 343 3.2 3.2 0.00 0.00 0.00 60 1009.5
20260905183753 34 320 0.0 0.0 0.00 0.00 0.00 62 1009.7
20260905183249 35 300 1.6 1.6 0.00 0.00 0.00 61 1009.7
20260905182748 34 260 0.0 1.6 0.00 0.00 0.00 68 1010.0
20260905182248 34 256 3.2 3.2 0.00 0.00 0.00 63 1010.1
20260905181743 34 263 0.0 0.0 0.00 0.00 0.00 64 1010.2
20260905181243 33 259 0.0 1.6 0.00 0.00 0.00 66 1010.2
20260905180737 33 251 3.2 4.8 0.00 0.00 0.00 65 1010.3
20260905180232 34 245 8.0 9.7 0.00 0.00 0.00 65 1010.4
20260905175727 33 253 0.0 0.0 0.00 0.00 0.00 66 1010.3
20260905175222 33 259 3.2 3.2 0.00 0.00 0.00 69 1010.6
20260905174716 33 279 0.0 0.0 0.00 0.00 0.00 67 1010.8
20260905174212 33 279 0.0 0.0 0.00 0.00 0.00 67 1010.8
20260905173709 33 268 1.6 1.6 0.00 0.00 0.00 68 1011.0
20260905173204 33 229 1.6 3.2 0.00 0.00 0.00 69 1010.7
20260905172703 33 256 1.6 3.2 0.00 0.00 0.00 71 1011.0
20260905172157 33 269 1.6 3.2 0.00 0.00 0.00 71 1011.0
20260905171653 33 230 1.6 1.6 0.00 0.00 0.00 70 1010.9
20260905171149 33 274 0.0 1.6 0.00 0.00 0.00 71 1011.0
20260905170646 32 286 0.0 0.0 0.00 0.00 0.00 72 1011.2
20260905170141 32 280 0.0 0.0 0.00 0.00 0.00 75 1011.3
20260905165640 32 149 3.2 3.2 0.00 0.00 0.00 74 1011.2
20260905165136 32 264 3.2 4.8 0.00 0.00 0.00 76 1011.3
20260905164631 32 253 4.8 4.8 0.00 0.00 0.00 75 1011.5
20260905164130 31 292 1.6 1.6 0.00 0.00 0.00 77 1011.5
20260905163627 31 259 1.6 3.2 0.00 0.00 0.00 78 1011.8
20260905163123 31 252 0.0 0.0 0.00 0.00 0.00 78 1011.8